QPF
0.00 0.00 0.00 0.00 0.00 0.00 0.01 0.00 0.00 0.00 0.00 0.00 0.00 0.00 0.01 0.02 0.04 0.07 0.05 0.03 0.02 0.01 0.00 0.00 0.00 0.01 0.01 0.01 0.01 0.01 0.01 0.01 0.01 0.01 0.00 0.00 0.01 0.00 0.00 0.00 0.00 0.00 0.00 0.00 0.00 0.00 0.00 0.01 0.00
0.00 0.00 0.00 0.00 0.00 0.00 0.01 0.00 0.00 0.01 0.01 0.00 0.00 0.00 0.00 0.00 0.01 0.02 0.04 0.04 0.02 0.02 0.01 0.01 0.01 0.01 0.01 0.01 0.02 0.02 0.02 0.01 0.01 0.01 0.01 0.01 0.01 0.00 0.00 0.00 0.00 0.00 0.00 0.01 0.01 0.00 0.00 0.00 0.00
0.00 0.00 0.00 0.00 0.00 0.00 0.01 0.01 0.01 0.00 0.00 0.00 0.00 0.00 0.00 0.01 0.02 0.04 0.03 0.02 0.02 0.02 0.01 0.00 0.00 0.01 0.01 0.01 0.02 0.02 0.02 0.02 0.02 0.02 0.01 0.01 0.01 0.00 0.00 0.01 0.00 0.00 0.00 0.00 0.01 0.01 0.01 0.01 0.01
0.00 0.00 0.00 0.00 0.00 0.00 0.01 0.04 0.04 0.00 0.00 0.00 0.00 0.02 0.01 0.02 0.03 0.04 0.02 0.01 0.01 0.01 0.01 0.00 0.01 0.01 0.01 0.02 0.02 0.03 0.03 0.03 0.03 0.02 0.02 0.01 0.01 0.01 0.01 0.01 0.01 0.00 0.00 0.00 0.00 0.00 0.00 0.01 0.01
0.00 0.00 0.00 0.00 0.00 0.00 0.01 0.02 0.02 0.02 0.01 0.01 0.02 0.06 0.04 0.02 0.02 0.02 0.01 0.01 0.02 0.02 0.01 0.01 0.01 0.01 0.01 0.01 0.02 0.02 0.02 0.01 0.02 0.01 0.02 0.02 0.02 0.01 0.01 0.01 0.01 0.00 0.00 0.00 0.00 0.00 0.00 0.00 0.01
0.00 0.00 0.00 0.00 0.00 0.00 0.02 0.04 0.03 0.02 0.01 0.01 0.02 0.03 0.04 0.03 0.02 0.02 0.02 0.02 0.03 0.02 0.02 0.01 0.00 0.01 0.01 0.01 0.01 0.01 0.01 0.01 0.01 0.01 0.01 0.02 0.01 0.01 0.02 0.01 0.01 0.01 0.01 0.01 0.01 0.01 0.00 0.00 0.01
0.00 0.00 0.00 0.00 0.00 0.01 0.01 0.05 0.03 0.02 0.01 0.01 0.02 0.05 0.06 0.04 0.02 0.02 0.02 0.02 0.03 0.03 0.03 0.03 0.02 0.02 0.01 0.01 0.01 0.02 0.01 0.01 0.01 0.01 0.01 0.01 0.01 0.01 0.01 0.01 0.01 0.01 0.02 0.02 0.02 0.02 0.01 0.01 0.01
0.00 0.00 0.00 0.00 0.00 0.01 0.01 0.02 0.03 0.03 0.03 0.02 0.03 0.07 0.04 0.02 0.02 0.02 0.03 0.03 0.03 0.03 0.05 0.06 0.07 0.06 0.06 0.04 0.03 0.02 0.02 0.02 0.02 0.01 0.01 0.01 0.01 0.03 0.03 0.03 0.02 0.01 0.01 0.02 0.02 0.02 0.02 0.02 0.02
0.00 0.00 0.00 0.00 0.00 0.01 0.01 0.01 0.01 0.02 0.02 0.03 0.04 0.03 0.03 0.01 0.01 0.03 0.05 0.07 0.07 0.07 0.07 0.09 0.09 0.09 0.08 0.07 0.04 0.05 0.04 0.04 0.04 0.04 0.03 0.04 0.09 0.12 0.12 0.06 0.04 0.02 0.02 0.02 0.02 0.03 0.02 0.02 0.02
0.00 0.00 0.00 0.00 0.00 0.02 0.02 0.01 0.01 0.00 0.02 0.04 0.07 0.06 0.02 0.02 0.03 0.06 0.08 0.09 0.10 0.10 0.11 0.10 0.10 0.10 0.12 0.10 0.09 0.10 0.09 0.09 0.09 0.11 0.09 0.11 0.17 0.17 0.12 0.10 0.06 0.04 0.02 0.02 0.02 0.03 0.03 0.03 0.04
0.00 0.00 0.00 0.00 0.00 0.03 0.03 0.02 0.01 0.02 0.03 0.05 0.07 0.09 0.04 0.04 0.06 0.08 0.07 0.07 0.07 0.07 0.07 0.08 0.10 0.12 0.15 0.15 0.11 0.12 0.14 0.18 0.17 0.14 0.12 0.16 0.16 0.13 0.09 0.12 0.10 0.07 0.05 0.08 0.10 0.09 0.08 0.10 0.11
0.00 0.00 0.01 0.01 0.02 0.03 0.04 0.02 0.03 0.08 0.11 0.09 0.08 0.05 0.05 0.05 0.05 0.05 0.05 0.05 0.07 0.10 0.06 0.06 0.08 0.11 0.13 0.15 0.14 0.13 0.15 0.15 0.14 0.12 0.12 0.15 0.14 0.13 0.11 0.12 0.12 0.12 0.12 0.15 0.14 0.15 0.12 0.11 0.12
0.00 0.01 0.01 0.01 0.01 0.02 0.05 0.02 0.03 0.10 0.14 0.12 0.10 0.03 0.03 0.03 0.04 0.04 0.03 0.04 0.06 0.07 0.05 0.05 0.06 0.09 0.14 0.16 0.17 0.16 0.19 0.15 0.13 0.13 0.12 0.13 0.13 0.12 0.12 0.12 0.11 0.10 0.10 0.11 0.12 0.11 0.12 0.11 0.11
0.00 0.01 0.01 0.00 0.00 0.02 0.04 0.03 0.04 0.08 0.12 0.14 0.09 0.05 0.03 0.02 0.03 0.04 0.06 0.03 0.04 0.04 0.04 0.05 0.06 0.07 0.09 0.10 0.13 0.15 0.17 0.19 0.15 0.13 0.11 0.14 0.16 0.13 0.13 0.14 0.11 0.09 0.08 0.09 0.09 0.08 0.09 0.10 0.08
0.00 0.00 0.01 0.01 0.01 0.01 0.01 0.02 0.03 0.03 0.09 0.12 0.08 0.06 0.05 0.04 0.03 0.05 0.04 0.03 0.03 0.03 0.04 0.05 0.05 0.08 0.08 0.09 0.10 0.14 0.16 0.18 0.17 0.14 0.12 0.12 0.12 0.09 0.10 0.09 0.08 0.08 0.06 0.07 0.05 0.06 0.06 0.06 0.06
0.00 0.01 0.01 0.01 0.01 0.01 0.01 0.05 0.06 0.04 0.05 0.09 0.05 0.04 0.05 0.05 0.04 0.05 0.05 0.04 0.05 0.05 0.05 0.04 0.04 0.09 0.11 0.11 0.12 0.16 0.20 0.21 0.16 0.15 0.14 0.10 0.08 0.07 0.07 0.07 0.07 0.06 0.05 0.06 0.07 0.07 0.07 0.06 0.06
0.01 0.02 0.03 0.01 0.00 0.00 0.02 0.10 0.12 0.05 0.05 0.06 0.04 0.04 0.04 0.04 0.04 0.03 0.04 0.04 0.05 0.04 0.03 0.03 0.03 0.04 0.08 0.09 0.10 0.11 0.13 0.17 0.14 0.12 0.14 0.10 0.07 0.05 0.05 0.06 0.07 0.05 0.05 0.06 0.08 0.08 0.08 0.07 0.07
0.02 0.03 0.08 0.04 0.01 0.00 0.01 0.03 0.07 0.10 0.09 0.10 0.04 0.03 0.04 0.04 0.04 0.03 0.02 0.02 0.02 0.02 0.02 0.02 0.02 0.03 0.05 0.07 0.09 0.11 0.10 0.08 0.08 0.08 0.10 0.07 0.04 0.03 0.03 0.05 0.07 0.06 0.06 0.07 0.08 0.07 0.08 0.08 0.08
0.03 0.02 0.04 0.04 0.02 0.01 0.01 0.01 0.05 0.11 0.09 0.08 0.05 0.03 0.03 0.03 0.03 0.03 0.02 0.02 0.02 0.01 0.01 0.01 0.02 0.03 0.03 0.04 0.06 0.12 0.11 0.08 0.05 0.05 0.05 0.04 0.03 0.04 0.03 0.04 0.06 0.05 0.06 0.07 0.08 0.07 0.08 0.08 0.08
0.05 0.02 0.02 0.04 0.03 0.02 0.02 0.01 0.02 0.05 0.05 0.06 0.04 0.03 0.04 0.03 0.03 0.05 0.05 0.02 0.02 0.01 0.01 0.01 0.02 0.02 0.04 0.05 0.05 0.05 0.10 0.14 0.09 0.06 0.05 0.03 0.03 0.04 0.03 0.04 0.05 0.05 0.06 0.07 0.07 0.08 0.08 0.08 0.08
0.04 0.02 0.02 0.03 0.04 0.02 0.03 0.04 0.03 0.03 0.06 0.07 0.06 0.05 0.06 0.03 0.02 0.04 0.03 0.02 0.01 0.02 0.02 0.02 0.02 0.02 0.03 0.04 0.04 0.04 0.05 0.07 0.08 0.08 0.06 0.04 0.04 0.04 0.04 0.05 0.05 0.05 0.06 0.05 0.06 0.08 0.08 0.07 0.09
0.02 0.01 0.01 0.03 0.03 0.02 0.02 0.05 0.06 0.04 0.05 0.09 0.09 0.06 0.04 0.02 0.02 0.02 0.02 0.02 0.02 0.03 0.03 0.03 0.03 0.03 0.04 0.05 0.06 0.05 0.05 0.05 0.06 0.06 0.05 0.05 0.03 0.03 0.04 0.06 0.04 0.04 0.05 0.05 0.06 0.08 0.07 0.07 0.07
0.01 0.01 0.03 0.02 0.03 0.02 0.02 0.04 0.05 0.05 0.06 0.08 0.09 0.08 0.04 0.03 0.02 0.03 0.04 0.02 0.02 0.02 0.02 0.04 0.04 0.05 0.06 0.07 0.05 0.06 0.07 0.06 0.05 0.04 0.04 0.03 0.02 0.02 0.03 0.04 0.04 0.05 0.05 0.05 0.06 0.07 0.06 0.05 0.04
0.00 0.00 0.01 0.04 0.05 0.05 0.03 0.03 0.06 0.07 0.10 0.13 0.16 0.10 0.05 0.03 0.03 0.03 0.02 0.01 0.01 0.01 0.02 0.02 0.04 0.06 0.05 0.05 0.05 0.05 0.05 0.04 0.04 0.04 0.04 0.03 0.02 0.02 0.02 0.02 0.04 0.05 0.06 0.07 0.07 0.05 0.03 0.03 0.03
0.01 0.01 0.02 0.05 0.07 0.06 0.02 0.02 0.05 0.04 0.05 0.10 0.13 0.08 0.05 0.04 0.03 0.03 0.02 0.01 0.01 0.02 0.01 0.01 0.03 0.04 0.04 0.04 0.03 0.03 0.03 0.03 0.03 0.04 0.04 0.03 0.02 0.02 0.03 0.03 0.03 0.03 0.03 0.03 0.04 0.04 0.02 0.02 0.02
0.01 0.03 0.07 0.07 0.06 0.05 0.04 0.04 0.06 0.05 0.05 0.10 0.12 0.07 0.05 0.04 0.03 0.03 0.02 0.02 0.02 0.01 0.01 0.01 0.02 0.03 0.03 0.04 0.03 0.03 0.03 0.03 0.03 0.04 0.04 0.04 0.03 0.03 0.02 0.02 0.02 0.02 0.02 0.02 0.03 0.04 0.03 0.03 0.03
0.00 0.02 0.03 0.02 0.01 0.03 0.05 0.06 0.08 0.06 0.04 0.06 0.07 0.05 0.04 0.03 0.03 0.02 0.02 0.02 0.02 0.01 0.01 0.01 0.02 0.03 0.02 0.02 0.02 0.03 0.03 0.03 0.04 0.05 0.05 0.05 0.03 0.03 0.02 0.02 0.02 0.03 0.02 0.02 0.03 0.04 0.04 0.04 0.03
0.00 0.00 0.01 0.02 0.03 0.03 0.04 0.07 0.13 0.11 0.09 0.07 0.04 0.03 0.02 0.02 0.02 0.02 0.02 0.02 0.03 0.02 0.02 0.02 0.02 0.02 0.02 0.02 0.02 0.02 0.03 0.03 0.04 0.04 0.04 0.03 0.03 0.02 0.02 0.02 0.03 0.02 0.02 0.03 0.03 0.03 0.03 0.03 0.03
0.00 0.00 0.01 0.02 0.02 0.04 0.06 0.12 0.13 0.10 0.08 0.07 0.04 0.02 0.01 0.01 0.01 0.02 0.02 0.03 0.03 0.03 0.03 0.03 0.02 0.02 0.02 0.02 0.02 0.03 0.03 0.03 0.03 0.04 0.03 0.03 0.03 0.03 0.03 0.02 0.02 0.02 0.02 0.04 0.04 0.02 0.02 0.02 0.02
0.00 0.00 0.00 0.01 0.02 0.02 0.05 0.10 0.07 0.09 0.07 0.07 0.05 0.03 0.02 0.01 0.01 0.01 0.02 0.02 0.03 0.03 0.02 0.02 0.02 0.02 0.02 0.02 0.03 0.04 0.05 0.05 0.04 0.03 0.03 0.03 0.04 0.04 0.03 0.02 0.02 0.02 0.02 0.03 0.03 0.01 0.01 0.01 0.01
MSLP
1008.96 1009.31 1009.73 1010.10 1010.32 1010.36 1010.20 1009.92 1009.59 1009.35 1009.28 1009.41 1009.74 1010.19 1010.68 1011.10 1011.37 1011.47 1011.44 1011.35 1011.31 1011.40 1011.69 1012.19 1012.85 1013.57 1014.27 1014.83 1015.22 1015.44 1015.52 1015.54 1015.57 1015.68 1015.90 1016.19 1016.53 1016.84 1017.08 1017.23 1017.28 1017.28 1017.28 1017.32 1017.42 1017.59 1017.80 1018.01 1018.16
1009.30 1009.74 1010.16 1010.44 1010.51 1010.33 1009.96 1009.48 1009.02 1008.69 1008.60 1008.76 1009.14 1009.67 1010.23 1010.70 1011.03 1011.18 1011.19 1011.17 1011.20 1011.38 1011.76 1012.34 1013.06 1013.82 1014.52 1015.08 1015.45 1015.65 1015.73 1015.76 1015.82 1015.96 1016.20 1016.51 1016.84 1017.13 1017.33 1017.42 1017.43 1017.39 1017.37 1017.41 1017.53 1017.72 1017.95 1018.17 1018.32
1009.77 1010.26 1010.63 1010.78 1010.66 1010.28 1009.72 1009.08 1008.51 1008.15 1008.07 1008.28 1008.74 1009.34 1009.96 1010.48 1010.84 1011.01 1011.06 1011.07 1011.15 1011.39 1011.83 1012.45 1013.20 1013.98 1014.68 1015.24 1015.61 1015.81 1015.91 1015.96 1016.06 1016.24 1016.50 1016.82 1017.12 1017.37 1017.52 1017.56 1017.52 1017.46 1017.44 1017.49 1017.63 1017.86 1018.11 1018.34 1018.48
1010.27 1010.73 1011.01 1011.01 1010.71 1010.15 1009.44 1008.71 1008.11 1007.77 1007.75 1008.05 1008.59 1009.26 1009.92 1010.47 1010.83 1011.01 1011.06 1011.08 1011.18 1011.44 1011.90 1012.55 1013.31 1014.09 1014.79 1015.34 1015.72 1015.94 1016.07 1016.17 1016.30 1016.51 1016.79 1017.09 1017.37 1017.58 1017.67 1017.67 1017.60 1017.53 1017.51 1017.59 1017.77 1018.02 1018.30 1018.53 1018.66
1010.67 1011.05 1011.19 1011.03 1010.57 1009.88 1009.09 1008.35 1007.79 1007.54 1007.63 1008.04 1008.67 1009.41 1010.11 1010.66 1011.00 1011.15 1011.18 1011.19 1011.28 1011.54 1012.01 1012.65 1013.41 1014.18 1014.87 1015.43 1015.81 1016.06 1016.22 1016.36 1016.53 1016.76 1017.04 1017.33 1017.57 1017.73 1017.79 1017.75 1017.66 1017.59 1017.59 1017.70 1017.91 1018.19 1018.48 1018.71 1018.82
1010.87 1011.11 1011.08 1010.77 1010.19 1009.44 1008.66 1007.98 1007.54 1007.44 1007.68 1008.23 1008.96 1009.75 1010.45 1010.99 1011.30 1011.41 1011.40 1011.38 1011.46 1011.71 1012.17 1012.80 1013.54 1014.29 1014.97 1015.52 1015.91 1016.18 1016.37 1016.53 1016.72 1016.96 1017.23 1017.49 1017.69 1017.81 1017.83 1017.77 1017.68 1017.63 1017.66 1017.79 1018.03 1018.33 1018.63 1018.84 1018.92
1010.78 1010.85 1010.67 1010.24 1009.60 1008.87 1008.16 1007.63 1007.37 1007.45 1007.87 1008.55 1009.36 1010.19 1010.89 1011.39 1011.65 1011.71 1011.67 1011.63 1011.70 1011.94 1012.39 1013.00 1013.72 1014.45 1015.10 1015.63 1016.03 1016.30 1016.50 1016.67 1016.86 1017.08 1017.32 1017.54 1017.71 1017.79 1017.78 1017.71 1017.63 1017.59 1017.65 1017.82 1018.08 1018.39 1018.68 1018.88 1018.93
1010.43 1010.35 1010.04 1009.53 1008.90 1008.24 1007.68 1007.34 1007.29 1007.58 1008.16 1008.95 1009.82 1010.66 1011.33 1011.79 1012.01 1012.04 1011.97 1011.92 1011.99 1012.23 1012.66 1013.25 1013.94 1014.63 1015.26 1015.76 1016.14 1016.40 1016.59 1016.75 1016.92 1017.11 1017.30 1017.48 1017.59 1017.64 1017.61 1017.54 1017.47 1017.46 1017.55 1017.74 1018.01 1018.33 1018.61 1018.79 1018.82
1009.94 1009.72 1009.33 1008.80 1008.22 1007.69 1007.32 1007.18 1007.34 1007.81 1008.53 1009.39 1010.29 1011.11 1011.75 1012.15 1012.34 1012.35 1012.28 1012.24 1012.31 1012.56 1012.98 1013.54 1014.19 1014.83 1015.41 1015.87 1016.21 1016.44 1016.61 1016.74 1016.88 1017.03 1017.17 1017.29 1017.37 1017.38 1017.34 1017.27 1017.22 1017.23 1017.34 1017.55 1017.83 1018.15 1018.42 1018.58 1018.61
1009.43 1009.14 1008.71 1008.22 1007.74 1007.36 1007.18 1007.24 1007.58 1008.18 1008.97 1009.86 1010.74 1011.51 1012.10 1012.47 1012.64 1012.65 1012.61 1012.60 1012.69 1012.94 1013.34 1013.86 1014.44 1015.02 1015.53 1015.93 1016.22 1016.42 1016.55 1016.65 1016.75 1016.85 1016.95 1017.03 1017.06 1017.05 1017.00 1016.94 1016.91 1016.94 1017.07 1017.29 1017.57 1017.88 1018.14 1018.30 1018.32
1009.07 1008.75 1008.34 1007.92 1007.57 1007.35 1007.34 1007.55 1008.00 1008.67 1009.47 1010.33 1011.15 1011.86 1012.40 1012.75 1012.92 1012.97 1012.98 1013.01 1013.13 1013.37 1013.74 1014.19 1014.69 1015.17 1015.60 1015.93 1016.16 1016.32 1016.42 1016.49 1016.56 1016.62 1016.69 1016.73 1016.74 1016.72 1016.67 1016.61 1016.60 1016.65 1016.79 1017.01 1017.29 1017.58 1017.83 1017.99 1018.02
1008.95 1008.65 1008.30 1007.99 1007.76 1007.69 1007.79 1008.10 1008.60 1009.26 1010.00 1010.78 1011.52 1012.15 1012.65 1013.00 1013.21 1013.33 1013.41 1013.50 1013.64 1013.87 1014.18 1014.54 1014.93 1015.30 1015.62 1015.86 1016.04 1016.15 1016.23 1016.29 1016.34 1016.39 1016.44 1016.47 1016.47 1016.45 1016.41 1016.37 1016.37 1016.43 1016.56 1016.77 1017.04 1017.31 1017.55 1017.71 1017.75
1009.08 1008.83 1008.58 1008.37 1008.27 1008.30 1008.48 1008.82 1009.29 1009.87 1010.51 1011.17 1011.80 1012.37 1012.85 1013.23 1013.51 1013.73 1013.90 1014.06 1014.23 1014.43 1014.66 1014.91 1015.16 1015.40 1015.60 1015.76 1015.88 1015.96 1016.03 1016.09 1016.15 1016.22 1016.27 1016.30 1016.32 1016.30 1016.27 1016.25 1016.26 1016.32 1016.44 1016.63 1016.86 1017.11 1017.33 1017.48 1017.54
1009.38 1009.21 1009.05 1008.95 1008.95 1009.05 1009.26 1009.56 1009.95 1010.41 1010.91 1011.43 1011.96 1012.48 1012.97 1013.42 1013.82 1014.16 1014.44 1014.68 1014.87 1015.04 1015.18 1015.30 1015.41 1015.51 1015.59 1015.66 1015.73 1015.79 1015.87 1015.95 1016.04 1016.12 1016.20 1016.26 1016.29 1016.30 1016.29 1016.27 1016.29 1016.33 1016.43 1016.59 1016.78 1016.98 1017.17 1017.31 1017.38
1009.69 1009.60 1009.54 1009.55 1009.62 1009.76 1009.96 1010.20 1010.48 1010.79 1011.13 1011.52 1011.97 1012.46 1012.99 1013.54 1014.08 1014.57 1014.99 1015.31 1015.53 1015.67 1015.72 1015.72 1015.68 1015.64 1015.61 1015.61 1015.64 1015.70 1015.79 1015.90 1016.02 1016.14 1016.25 1016.33 1016.38 1016.41 1016.42 1016.41 1016.42 1016.44 1016.51 1016.61 1016.75 1016.90 1017.05 1017.17 1017.24
1009.86 1009.85 1009.89 1009.98 1010.12 1010.30 1010.47 1010.64 1010.79 1010.95 1011.15 1011.42 1011.80 1012.29 1012.89 1013.56 1014.26 1014.91 1015.47 1015.89 1016.15 1016.26 1016.24 1016.14 1015.98 1015.83 1015.71 1015.64 1015.64 1015.71 1015.81 1015.95 1016.10 1016.25 1016.38 1016.48 1016.55 1016.59 1016.60 1016.60 1016.59 1016.59 1016.62 1016.67 1016.74 1016.83 1016.94 1017.03 1017.09
1009.77 1009.84 1009.97 1010.16 1010.38 1010.58 1010.74 1010.83 1010.87 1010.89 1010.96 1011.13 1011.46 1011.97 1012.65 1013.45 1014.31 1015.12 1015.83 1016.35 1016.67 1016.78 1016.72 1016.54 1016.31 1016.07 1015.90 1015.79 1015.78 1015.84 1015.96 1016.12 1016.29 1016.44 1016.57 1016.67 1016.74 1016.78 1016.79 1016.78 1016.76 1016.73 1016.71 1016.70 1016.71 1016.75 1016.80 1016.85 1016.89
1009.42 1009.56 1009.80 1010.10 1010.40 1010.65 1010.80 1010.84 1010.79 1010.69 1010.65 1010.74 1011.03 1011.55 1012.29 1013.21 1014.20 1015.17 1016.02 1016.65 1017.04 1017.19 1017.12 1016.92 1016.65 1016.38 1016.18 1016.07 1016.05 1016.12 1016.24 1016.40 1016.55 1016.69 1016.80 1016.87 1016.92 1016.95 1016.95 1016.92 1016.88 1016.83 1016.76 1016.70 1016.66 1016.63 1016.63 1016.65 1016.68
1008.88 1009.12 1009.48 1009.90 1010.30 1010.62 1010.79 1010.79 1010.67 1010.48 1010.33 1010.34 1010.58 1011.09 1011.88 1012.87 1013.98 1015.07 1016.03 1016.78 1017.25 1017.46 1017.44 1017.26 1017.00 1016.75 1016.57 1016.47 1016.46 1016.53 1016.65 1016.78 1016.90 1016.99 1017.04 1017.07 1017.08 1017.07 1017.05 1017.01 1016.95 1016.87 1016.78 1016.68 1016.58 1016.51 1016.46 1016.45 1016.47
1008.33 1008.68 1009.17 1009.72 1010.25 1010.64 1010.85 1010.84 1010.66 1010.39 1010.15 1010.07 1010.23 1010.71 1011.50 1012.53 1013.70 1014.87 1015.93 1016.77 1017.34 1017.63 1017.68 1017.57 1017.38 1017.19 1017.05 1016.99 1017.00 1017.07 1017.17 1017.26 1017.31 1017.34 1017.32 1017.28 1017.23 1017.18 1017.12 1017.06 1016.99 1016.90 1016.79 1016.66 1016.53 1016.42 1016.34 1016.30 1016.30
1007.98 1008.45 1009.08 1009.77 1010.41 1010.89 1011.14 1011.13 1010.91 1010.56 1010.23 1010.05 1010.13 1010.53 1011.27 1012.28 1013.46 1014.68 1015.79 1016.71 1017.36 1017.75 1017.91 1017.90 1017.80 1017.69 1017.62 1017.60 1017.64 1017.71 1017.78 1017.82 1017.81 1017.74 1017.65 1017.53 1017.41 1017.30 1017.21 1017.13 1017.05 1016.95 1016.82 1016.68 1016.53 1016.39 1016.29 1016.23 1016.22
1008.00 1008.58 1009.34 1010.16 1010.91 1011.46 1011.75 1011.75 1011.48 1011.07 1010.65 1010.37 1010.34 1010.65 1011.31 1012.26 1013.40 1014.61 1015.75 1016.71 1017.44 1017.92 1018.18 1018.28 1018.28 1018.27 1018.27 1018.31 1018.37 1018.43 1018.47 1018.45 1018.36 1018.21 1018.03 1017.83 1017.64 1017.48 1017.36 1017.25 1017.15 1017.04 1016.91 1016.76 1016.60 1016.44 1016.32 1016.24 1016.23
1008.43 1009.12 1009.99 1010.90 1011.72 1012.34 1012.66 1012.65 1012.37 1011.90 1011.41 1011.04 1010.92 1011.13 1011.68 1012.55 1013.62 1014.79 1015.91 1016.90 1017.67 1018.22 1018.56 1018.75 1018.85 1018.91 1018.98 1019.05 1019.13 1019.18 1019.18 1019.10 1018.94 1018.72 1018.46 1018.19 1017.94 1017.73 1017.56 1017.43 1017.31 1017.19 1017.05 1016.89 1016.71 1016.54 1016.40 1016.31 1016.28
1009.25 1010.01 1010.93 1011.90 1012.76 1013.41 1013.74 1013.75 1013.46 1012.98 1012.45 1012.03 1011.83 1011.96 1012.43 1013.20 1014.19 1015.29 1016.37 1017.34 1018.12 1018.71 1019.10 1019.35 1019.51 1019.62 1019.71 1019.80 1019.87 1019.89 1019.85 1019.72 1019.51 1019.23 1018.91 1018.58 1018.28 1018.02 1017.82 1017.65 1017.51 1017.36 1017.20 1017.03 1016.83 1016.64 1016.48 1016.37 1016.32
1010.29 1011.07 1012.01 1012.97 1013.83 1014.48 1014.83 1014.86 1014.60 1014.15 1013.64 1013.22 1013.01 1013.10 1013.50 1014.19 1015.11 1016.13 1017.14 1018.06 1018.82 1019.39 1019.79 1020.06 1020.22 1020.33 1020.41 1020.48 1020.52 1020.51 1020.42 1020.25 1020.00 1019.68 1019.32 1018.95 1018.62 1018.32 1018.07 1017.87 1017.68 1017.51 1017.32 1017.11 1016.90 1016.69 1016.51 1016.37 1016.30
1011.34 1012.10 1012.99 1013.91 1014.73 1015.36 1015.73 1015.80 1015.62 1015.26 1014.84 1014.50 1014.34 1014.43 1014.82 1015.46 1016.31 1017.24 1018.18 1019.02 1019.71 1020.23 1020.59 1020.81 1020.93 1020.99 1021.03 1021.04 1021.02 1020.96 1020.83 1020.63 1020.35 1020.01 1019.63 1019.25 1018.89 1018.56 1018.28 1018.03 1017.80 1017.58 1017.35 1017.11 1016.87 1016.63 1016.42 1016.27 1016.17
1012.20 1012.89 1013.69 1014.52 1015.29 1015.90 1016.29 1016.45 1016.38 1016.17 1015.91 1015.71 1015.66 1015.83 1016.24 1016.87 1017.66 1018.51 1019.35 1020.10 1020.69 1021.12 1021.39 1021.53 1021.56 1021.54 1021.49 1021.43 1021.34 1021.21 1021.04 1020.81 1020.53 1020.19 1019.82 1019.44 1019.07 1018.72 1018.41 1018.11 1017.84 1017.57 1017.29 1017.01 1016.73 1016.47 1016.24 1016.07 1015.95
1012.75 1013.32 1014.00 1014.72 1015.41 1016.01 1016.45 1016.71 1016.81 1016.80 1016.75 1016.75 1016.87 1017.15 1017.62 1018.25 1018.99 1019.77 1020.51 1021.14 1021.62 1021.93 1022.09 1022.11 1022.04 1021.91 1021.76 1021.60 1021.43 1021.25 1021.05 1020.81 1020.53 1020.21 1019.87 1019.51 1019.15 1018.80 1018.46 1018.13 1017.80 1017.48 1017.15 1016.83 1016.52 1016.24 1015.99 1015.81 1015.68
1012.93 1013.37 1013.91 1014.51 1015.13 1015.71 1016.21 1016.61 1016.90 1017.12 1017.31 1017.53 1017.83 1018.25 1018.79 1019.44 1020.14 1020.83 1021.46 1021.97 1022.33 1022.52 1022.56 1022.47 1022.29 1022.07 1021.82 1021.58 1021.34 1021.12 1020.89 1020.66 1020.40 1020.12 1019.82 1019.50 1019.17 1018.82 1018.47 1018.11 1017.74 1017.37 1017.00 1016.64 1016.31 1016.01 1015.76 1015.57 1015.45
1012.84 1013.13 1013.53 1014.02 1014.57 1015.15 1015.72 1016.25 1016.73 1017.17 1017.60 1018.04 1018.52 1019.06 1019.67 1020.31 1020.96 1021.57 1022.09 1022.48 1022.72 1022.81 1022.75 1022.57 1022.31 1022.01 1021.69 1021.39 1021.12 1020.88 1020.65 1020.44 1020.23 1020.00 1019.75 1019.48 1019.19 1018.86 1018.51 1018.12 1017.72 1017.31 1016.91 1016.52 1016.16 1015.86 1015.61 1015.44 1015.33
Thickness
5815 5821 5825 5822 5808 5801 5802 5822 5835 5836 5836 5844 5845 5836 5818 5808 5798 5783 5811 5824 5818 5808 5799 5793 5790 5787 5784 5782 5779 5775 5773 5770 5768 5766 5764 5762 5761 5759 5758 5756 5755 5754 5752 5751 5750 5749 5748 5747 5746
5815 5823 5822 5813 5797 5788 5805 5829 5831 5835 5840 5846 5842 5833 5819 5808 5813 5810 5815 5818 5814 5805 5798 5792 5787 5784 5781 5778 5775 5772 5769 5766 5764 5762 5760 5759 5757 5756 5754 5753 5752 5750 5749 5749 5748 5747 5745 5744 5743
5812 5820 5810 5805 5797 5797 5809 5829 5833 5840 5845 5841 5831 5827 5814 5804 5810 5810 5814 5815 5809 5801 5794 5787 5783 5780 5777 5774 5771 5768 5765 5762 5760 5758 5756 5755 5753 5752 5751 5750 5748 5747 5746 5745 5744 5743 5742 5741 5740
5811 5811 5808 5800 5799 5819 5825 5829 5835 5833 5836 5837 5828 5811 5806 5812 5812 5813 5815 5812 5805 5798 5790 5783 5780 5776 5773 5769 5766 5764 5761 5758 5756 5754 5752 5751 5750 5748 5747 5746 5745 5744 5743 5742 5741 5740 5740 5739 5738
5808 5802 5791 5793 5807 5827 5836 5837 5834 5826 5825 5827 5821 5798 5791 5808 5815 5814 5811 5807 5801 5796 5787 5780 5775 5772 5769 5765 5762 5760 5757 5755 5753 5751 5749 5747 5746 5744 5743 5742 5741 5741 5740 5739 5739 5738 5737 5736 5736
5797 5799 5784 5788 5808 5826 5835 5839 5831 5823 5825 5823 5812 5795 5785 5802 5805 5806 5807 5803 5800 5793 5784 5776 5771 5768 5764 5761 5758 5755 5753 5751 5749 5747 5745 5744 5742 5741 5739 5738 5738 5737 5737 5736 5736 5735 5734 5733 5733
5790 5790 5788 5800 5811 5816 5829 5836 5825 5819 5815 5820 5816 5792 5783 5794 5801 5804 5803 5800 5796 5790 5781 5773 5768 5763 5759 5756 5753 5751 5748 5746 5745 5743 5741 5739 5738 5737 5736 5735 5735 5734 5734 5733 5733 5732 5731 5731 5730
5801 5792 5791 5803 5809 5812 5828 5829 5826 5820 5813 5822 5816 5789 5779 5789 5799 5800 5797 5793 5789 5784 5778 5772 5767 5761 5756 5752 5748 5746 5744 5742 5740 5738 5737 5736 5735 5734 5733 5732 5731 5731 5730 5730 5730 5729 5728 5728 5728
5803 5782 5783 5802 5811 5813 5822 5817 5819 5826 5815 5811 5809 5801 5793 5795 5795 5790 5785 5781 5778 5775 5772 5768 5764 5759 5756 5751 5746 5742 5739 5737 5735 5734 5733 5732 5732 5731 5730 5730 5729 5728 5728 5727 5727 5727 5726 5726 5726
5794 5779 5792 5816 5825 5817 5816 5812 5813 5808 5799 5792 5789 5789 5791 5788 5786 5780 5774 5769 5767 5765 5765 5763 5760 5756 5752 5749 5743 5740 5737 5733 5732 5731 5729 5729 5729 5728 5728 5727 5726 5725 5725 5725 5725 5724 5724 5723 5725
5793 5788 5804 5816 5822 5817 5809 5810 5811 5798 5784 5786 5780 5778 5782 5780 5776 5772 5768 5765 5762 5761 5759 5758 5755 5752 5748 5744 5740 5738 5734 5730 5728 5727 5727 5726 5726 5725 5725 5723 5722 5721 5722 5722 5722 5722 5721 5722 5723
5793 5798 5805 5808 5813 5808 5804 5803 5797 5789 5778 5785 5783 5780 5777 5772 5769 5766 5762 5759 5756 5752 5752 5752 5749 5746 5744 5740 5737 5734 5731 5727 5725 5724 5723 5722 5722 5721 5721 5720 5718 5719 5719 5719 5720 5720 5720 5720 5720
5787 5794 5801 5805 5804 5800 5796 5791 5786 5776 5780 5779 5776 5774 5770 5767 5764 5760 5758 5754 5750 5745 5745 5744 5742 5739 5737 5734 5731 5729 5726 5723 5722 5719 5718 5717 5717 5716 5716 5715 5715 5715 5715 5715 5715 5716 5717 5716 5716
5789 5793 5796 5799 5799 5797 5786 5781 5778 5770 5775 5771 5767 5764 5763 5759 5756 5753 5749 5745 5742 5740 5738 5738 5736 5733 5730 5728 5725 5723 5720 5717 5716 5714 5712 5711 5711 5710 5711 5711 5709 5710 5710 5710 5710 5711 5712 5711 5711
5792 5782 5782 5791 5793 5792 5785 5766 5766 5771 5772 5763 5761 5757 5754 5751 5749 5745 5742 5738 5736 5734 5732 5731 5730 5728 5725 5722 5719 5716 5714 5711 5709 5709 5707 5705 5705 5705 5705 5705 5704 5704 5704 5705 5705 5705 5706 5706 5706
5779 5769 5761 5777 5785 5788 5773 5745 5759 5769 5766 5758 5755 5751 5746 5742 5741 5740 5738 5735 5732 5729 5726 5725 5725 5721 5718 5715 5712 5710 5707 5705 5703 5702 5699 5698 5698 5697 5698 5698 5697 5696 5698 5698 5698 5699 5698 5699 5699
5760 5754 5757 5769 5784 5784 5770 5745 5750 5764 5759 5752 5749 5745 5740 5735 5734 5734 5734 5731 5727 5723 5721 5718 5717 5715 5712 5708 5705 5703 5700 5698 5697 5694 5691 5690 5690 5690 5690 5690 5689 5690 5691 5691 5691 5691 5691 5691 5691
5750 5756 5760 5763 5777 5779 5766 5752 5752 5757 5753 5747 5746 5741 5736 5733 5730 5730 5729 5726 5722 5718 5715 5712 5710 5708 5706 5702 5699 5696 5693 5691 5690 5686 5682 5682 5682 5682 5683 5684 5682 5683 5683 5683 5683 5683 5684 5684 5684
5766 5764 5762 5767 5781 5773 5764 5753 5751 5755 5752 5747 5743 5740 5736 5731 5729 5726 5724 5721 5717 5713 5709 5706 5704 5701 5699 5696 5692 5688 5685 5684 5682 5680 5677 5676 5675 5675 5675 5675 5675 5675 5675 5674 5675 5675 5676 5676 5678
5765 5757 5757 5767 5778 5770 5761 5754 5756 5757 5753 5749 5746 5741 5736 5729 5723 5719 5718 5715 5711 5707 5703 5701 5699 5696 5693 5690 5687 5683 5680 5677 5675 5673 5671 5669 5668 5667 5667 5666 5667 5667 5667 5667 5667 5667 5666 5668 5670
5758 5757 5759 5761 5765 5769 5758 5746 5752 5754 5756 5753 5750 5744 5735 5729 5721 5715 5711 5709 5705 5701 5698 5696 5692 5690 5687 5685 5682 5679 5675 5671 5668 5666 5664 5663 5661 5659 5658 5658 5658 5659 5659 5659 5658 5658 5658 5657 5660
5749 5767 5767 5761 5750 5747 5752 5727 5741 5749 5745 5746 5745 5738 5733 5729 5722 5714 5710 5705 5701 5697 5694 5690 5686 5683 5680 5678 5675 5671 5667 5663 5660 5659 5657 5656 5654 5652 5650 5650 5649 5650 5650 5650 5650 5649 5649 5650 5650
5761 5775 5766 5759 5749 5743 5747 5732 5734 5746 5736 5737 5739 5735 5733 5728 5721 5714 5708 5703 5698 5693 5688 5684 5680 5676 5673 5671 5667 5664 5660 5658 5656 5654 5651 5649 5647 5644 5643 5642 5641 5641 5641 5641 5641 5641 5641 5641 5641
5771 5765 5760 5757 5746 5724 5734 5726 5723 5734 5732 5732 5731 5729 5728 5724 5718 5711 5706 5699 5693 5688 5683 5678 5673 5669 5666 5663 5660 5656 5652 5650 5647 5645 5643 5641 5639 5637 5635 5634 5632 5632 5632 5632 5632 5632 5632 5632 5632
5759 5740 5720 5710 5707 5708 5731 5724 5721 5737 5742 5736 5727 5723 5721 5718 5711 5703 5698 5692 5686 5681 5676 5672 5666 5661 5658 5655 5651 5648 5646 5643 5639 5637 5635 5633 5631 5628 5626 5625 5624 5623 5623 5624 5624 5624 5624 5624 5624
5748 5739 5710 5692 5691 5705 5717 5711 5721 5736 5741 5738 5728 5722 5717 5711 5705 5697 5691 5686 5680 5675 5669 5664 5659 5654 5651 5647 5644 5641 5638 5636 5632 5629 5627 5624 5622 5620 5618 5617 5616 5615 5615 5616 5615 5615 5615 5616 5616
5744 5741 5742 5720 5713 5701 5705 5712 5718 5727 5723 5721 5719 5715 5709 5703 5696 5690 5685 5679 5672 5667 5661 5656 5651 5646 5643 5640 5636 5633 5629 5627 5623 5621 5618 5615 5613 5612 5611 5609 5608 5607 5607 5606 5607 5607 5607 5607 5608
5761 5751 5734 5718 5700 5695 5703 5702 5696 5704 5708 5708 5706 5705 5699 5695 5688 5684 5678 5671 5665 5659 5654 5649 5644 5639 5635 5632 5629 5625 5621 5618 5615 5612 5609 5607 5605 5603 5602 5601 5600 5599 5599 5598 5599 5599 5599 5599 5600
5748 5745 5739 5730 5723 5705 5693 5692 5707 5705 5706 5704 5702 5699 5693 5688 5683 5677 5671 5664 5658 5652 5647 5641 5637 5632 5628 5624 5620 5616 5613 5609 5606 5603 5601 5599 5597 5595 5594 5593 5592 5591 5590 5590 5590 5590 5590 5591 5591
5749 5744 5738 5718 5715 5719 5707 5691 5715 5713 5710 5703 5697 5692 5687 5680 5675 5670 5663 5657 5651 5645 5640 5635 5630 5625 5621 5617 5612 5608 5604 5600 5597 5594 5592 5591 5589 5587 5587 5586 5584 5583 5583 5583 5583 5582 5583 5582 5583